Ana Sayfa
METAR-TAF:

METAR-TAF

Havaalanları :

Puerto Peñasco, Meksika

Enlem: 31-21-07N, Boylam: 113-18-20W, yükseklik: 22 m

Güncel hava durumu gözlemi

Rapor saat 14:51 UTC de 15 saat ve 36 dakika önce yapıldı.
Rüzgar kuzeybatıdan 4 kt
Sıcaklık 7°C
Nem 93%
Basınç 1019 hPa
Görüş mesafesi: 16.1 km
Açık gökyüzü

METAR: MMPE 271451Z 32004KT 10SM SKC 07/06 A3009 RMK HZY RTS

Saat: 23:27 (06:27 UTC)


TAF: eksik

4.000'den fazla havaalanı için hava durumu gözlemleri ve tahminleri (METAR ve TAF raporları).

Kullanılabilir istasyonlar harita üzerinde sarı ve kırmızı noktalarla gösterilir.

İstasyonun adını görmek için fareyi noktanın üzerinde gezdirin.

Sonrasında hava gözlem ve tahminlerini görmek için tıklayın.

Haritayı değiştirmek için: yaklaştırmak için siyah artı işaretli yeşil düğmeye ve uzaklaştırmak için de eksi işaretli düğmeye hızla tıklayın; bitişik haritalar için yeşil okları kullanın.


METAR-TAF: